Aérodrome :
LOGIN :

S'inscrire | Disclaimer

   EN    FR    IT 

 










Légende :    VFR   VFR Marginal   IFR   IFR Intensif   IFR Très Intensif
Visi : 
Plafond : 
>= 8 km
>= 3000ft
5 à 8 km
1000 à 3000 ft
1500m à 5 km
500 à 1000 ft
800 à 1500m
200 à 500 ft
< 800m
< 200 ft
Symboles :   Orages  Brouillard  Fortes neiges  Fortes précipitations  Vent > 20 kt
SIGMETs :   Divers  Orages  Givrage  Turbulence  Onde Orograph.  Cendres Volcan.







- Altitude de l'aérodrome : 55 ft
- Code IATA : DSA
- Voir les cartes d'approche


EGCN - Robin Hood Doncaster Sheffield

DERNIER METAR :
  • 191820Z 27016KT 9999 FEW016 SCT041 17/09 Q1016

METARs EXPIRÉS :
  • 191750Z 26017KT CAVOK 17/09 Q1016
  • 191720Z 27017KT CAVOK 17/09 Q1016
  • 191650Z 26018KT 9999 FEW040 17/09 Q1016
  • 191620Z 27017KT 9999 FEW036 17/09 Q1016
  • 191550Z 26017KT 9999 FEW041 17/09 Q1016

TAF TAF EGCN
Valide du 19 à 18h jusqu'au 20 à 18h UTC


191700Z 1918/2018 26013KT 9999 FEW030
PROB40
TEMPO 1918/1920 27018G28KT
PROB30 2003/2007 25003KT 6000 BKN008
Pas de NOTAMs connus pour ce terrain.



MET'MAP, la Météo Aéronautique d'un coup d'oeil ! - Copyright ORBIFLY Décembre 2007 - Disclaimer

ORBIFLY MET'MAP TEAM :

Programmation & Développement : Alexandra Zaïnal
Conception & Développement : Baudouin d'Aumeries
Co-Programmation & Développement : Marc-Olivier Méhu
Soutien technique & logistique : Manuel Goepfert

Contact : metmap@orbifly.com




SOURCES & CREDITS :

   NOAA